TimeEDT,TemperatureF,Dew PointF,Humidity,Sea Level PressureIn,VisibilityMPH,Wind Direction,Wind SpeedMPH,Gust SpeedMPH,PrecipitationIn,Events,Conditions,WindDirDegrees,DateUTC
12:15 AM,51.8,50.0,94,30.27,2.5,Calm,Calm,-,N/A,,Clear,0,2011-10-06 04:15:00
12:35 AM,51.8,50.0,94,30.27,5.0,Calm,Calm,-,N/A,,Clear,0,2011-10-06 04:35:00
12:55 AM,51.8,50.0,94,30.27,4.0,Calm,Calm,-,N/A,,Clear,0,2011-10-06 04:55:00
1:15 AM,51.8,50.0,94,30.28,5.0,Calm,Calm,-,N/A,,Clear,0,2011-10-06 05:15:00
1:35 AM,50.0,48.2,94,30.28,4.0,Calm,Calm,-,N/A,,Clear,0,2011-10-06 05:35:00
1:55 AM,48.2,48.2,100,30.28,7.0,Calm,Calm,-,N/A,,Clear,0,2011-10-06 05:55:00
2:15 AM,48.2,48.2,100,30.28,3.0,Calm,Calm,-,N/A,,Clear,0,2011-10-06 06:15:00
2:35 AM,48.2,48.2,100,30.29,5.0,Calm,Calm,-,N/A,,Clear,0,2011-10-06 06:35:00
2:55 AM,48.2,48.2,100,30.29,4.0,Calm,Calm,-,N/A,,Clear,0,2011-10-06 06:55:00
3:15 AM,48.2,46.4,93,30.29,4.0,Calm,Calm,-,N/A,,Clear,0,2011-10-06 07:15:00
3:35 AM,48.2,46.4,93,30.29,4.0,Calm,Calm,-,N/A,,Clear,0,2011-10-06 07:35:00
3:55 AM,48.2,48.2,100,30.29,5.0,Calm,Calm,-,N/A,,Clear,0,2011-10-06 07:55:00
4:15 AM,48.2,46.4,93,30.30,4.0,Calm,Calm,-,N/A,,Clear,0,2011-10-06 08:15:00
4:35 AM,46.4,46.4,100,30.30,4.0,Calm,Calm,-,N/A,,Clear,0,2011-10-06 08:35:00
4:55 AM,46.4,46.4,100,30.30,5.0,Calm,Calm,-,N/A,,Clear,0,2011-10-06 08:55:00
5:15 AM,46.4,46.4,100,30.30,5.0,Calm,Calm,-,N/A,,Clear,0,2011-10-06 09:15:00
5:35 AM,46.4,46.4,100,30.30,10.0,Calm,Calm,-,N/A,,Clear,0,2011-10-06 09:35:00
5:55 AM,46.4,46.4,100,30.31,3.0,Calm,Calm,-,N/A,,Clear,0,2011-10-06 09:55:00
6:15 AM,46.4,46.4,100,30.31,4.0,Calm,Calm,-,N/A,,Clear,0,2011-10-06 10:15:00
6:35 AM,46.4,46.4,100,30.32,4.0,Calm,Calm,-,N/A,,Clear,0,2011-10-06 10:35:00
6:55 AM,46.4,44.6,93,30.33,10.0,Calm,Calm,-,N/A,,Clear,0,2011-10-06 10:55:00
7:15 AM,44.6,44.6,100,30.33,10.0,Calm,Calm,-,N/A,,Clear,0,2011-10-06 11:15:00
7:35 AM,44.6,44.6,100,30.34,10.0,Calm,Calm,-,N/A,,Clear,0,2011-10-06 11:35:00
7:55 AM,46.4,46.4,100,30.34,10.0,Calm,Calm,-,N/A,,Clear,0,2011-10-06 11:55:00
8:15 AM,48.2,48.2,100,30.35,10.0,Calm,Calm,-,N/A,,Clear,0,2011-10-06 12:15:00
8:35 AM,57.2,55.4,94,30.35,10.0,ENE,5.8,-,N/A,,Clear,60,2011-10-06 12:35:00
8:55 AM,60.8,53.6,77,30.36,10.0,ENE,6.9,-,N/A,,Clear,60,2011-10-06 12:55:00
9:15 AM,60.8,51.8,72,30.36,10.0,ENE,8.1,-,N/A,,Clear,60,2011-10-06 13:15:00
9:35 AM,60.8,51.8,72,30.37,10.0,ENE,8.1,-,N/A,,Clear,60,2011-10-06 13:35:00
9:55 AM,62.6,51.8,68,30.37,10.0,NE,5.8,-,N/A,,Clear,50,2011-10-06 13:55:00
10:15 AM,62.6,51.8,68,30.37,10.0,NE,5.8,-,N/A,,Clear,50,2011-10-06 14:15:00
10:35 AM,64.4,51.8,64,30.38,10.0,NE,5.8,-,N/A,,Clear,50,2011-10-06 14:35:00
10:55 AM,64.4,50.0,59,30.38,10.0,Calm,Calm,-,N/A,,Clear,0,2011-10-06 14:55:00
11:15 AM,66.2,50.0,56,30.38,10.0,NE,3.5,-,N/A,,Clear,50,2011-10-06 15:15:00
12:35 PM,71.6,48.2,43,30.37,10.0,Calm,Calm,-,N/A,,Clear,0,2011-10-06 16:35:00
12:55 PM,71.6,46.4,41,30.37,10.0,NE,6.9,-,N/A,,Clear,50,2011-10-06 16:55:00
1:15 PM,71.6,46.4,41,30.37,10.0,NE,8.1,-,N/A,,Clear,50,2011-10-06 17:15:00
1:35 PM,71.6,46.4,41,30.36,10.0,Calm,Calm,-,N/A,,Clear,0,2011-10-06 17:35:00
1:55 PM,73.4,48.2,41,30.35,10.0,North,5.8,-,N/A,,Clear,360,2011-10-06 17:55:00
2:15 PM,71.6,46.4,41,30.34,10.0,NNE,5.8,-,N/A,,Clear,20,2011-10-06 18:15:00
2:35 PM,73.4,46.4,38,30.34,10.0,ENE,5.8,-,N/A,,Clear,60,2011-10-06 18:35:00
2:55 PM,73.4,46.4,38,30.33,10.0,East,4.6,-,N/A,,Clear,90,2011-10-06 18:55:00
3:15 PM,73.4,46.4,38,30.33,10.0,NE,9.2,-,N/A,,Clear,50,2011-10-06 19:15:00
3:35 PM,73.4,48.2,41,30.34,10.0,ENE,4.6,-,N/A,,Clear,60,2011-10-06 19:35:00
3:55 PM,73.4,46.4,38,30.34,10.0,ENE,8.1,-,N/A,,Clear,60,2011-10-06 19:55:00
4:15 PM,73.4,48.2,41,30.34,10.0,NNE,8.1,-,N/A,,Clear,30,2011-10-06 20:15:00
4:35 PM,73.4,48.2,41,30.33,10.0,NNE,5.8,-,N/A,,Clear,30,2011-10-06 20:35:00
4:55 PM,71.6,48.2,43,30.33,10.0,NNE,3.5,-,N/A,,Scattered Clouds,30,2011-10-06 20:55:00
5:15 PM,71.6,48.2,43,30.33,10.0,NE,5.8,-,N/A,,Scattered Clouds,40,2011-10-06 21:15:00
5:35 PM,71.6,48.2,43,30.33,10.0,ENE,5.8,-,N/A,,Clear,70,2011-10-06 21:35:00
5:55 PM,71.6,50.0,46,30.33,10.0,ENE,5.8,-,N/A,,Scattered Clouds,70,2011-10-06 21:55:00
6:15 PM,69.8,51.8,53,30.33,10.0,ENE,4.6,-,N/A,,Clear,60,2011-10-06 22:15:00
6:35 PM,66.2,53.6,64,30.34,10.0,Calm,Calm,-,N/A,,Clear,0,2011-10-06 22:35:00
6:55 PM,62.6,55.4,77,30.34,10.0,Calm,Calm,-,N/A,,Clear,0,2011-10-06 22:55:00
7:15 PM,60.8,55.4,82,30.34,10.0,Calm,Calm,-,N/A,,Clear,0,2011-10-06 23:15:00
7:35 PM,60.8,53.6,77,30.35,10.0,Calm,Calm,-,N/A,,Clear,0,2011-10-06 23:35:00
7:55 PM,57.2,53.6,88,30.35,10.0,Calm,Calm,-,N/A,,Clear,0,2011-10-06 23:55:00
8:15 PM,57.2,53.6,88,30.35,10.0,Calm,Calm,-,N/A,,Clear,0,2011-10-07 00:15:00
8:35 PM,57.2,53.6,88,30.35,10.0,Calm,Calm,-,N/A,,Clear,0,2011-10-07 00:35:00
8:55 PM,55.4,53.6,94,30.36,10.0,Calm,Calm,-,N/A,,Clear,0,2011-10-07 00:55:00
9:15 PM,55.4,53.6,94,30.36,10.0,Calm,Calm,-,N/A,,Clear,0,2011-10-07 01:15:00
9:35 PM,53.6,51.8,94,30.37,10.0,Calm,Calm,-,N/A,,Clear,0,2011-10-07 01:35:00
9:55 PM,53.6,51.8,94,30.37,3.0,Calm,Calm,-,N/A,,Clear,0,2011-10-07 01:55:00
10:15 PM,53.6,51.8,94,30.38,3.0,Calm,Calm,-,N/A,,Clear,0,2011-10-07 02:15:00
10:35 PM,51.8,51.8,100,30.38,2.0,Calm,Calm,-,N/A,,Clear,0,2011-10-07 02:35:00
10:55 PM,51.8,51.8,100,30.38,3.0,Calm,Calm,-,N/A,,Clear,0,2011-10-07 02:55:00
11:15 PM,51.8,50.0,94,30.38,3.0,Calm,Calm,-,N/A,,Clear,0,2011-10-07 03:15:00
11:35 PM,50.0,50.0,100,30.38,4.0,Calm,Calm,-,N/A,,Clear,0,2011-10-07 03:35:00
11:55 PM,48.2,48.2,100,30.38,2.5,Calm,Calm,-,N/A,,Clear,0,2011-10-07 03:55:00